CW9825 Weather Reports


time (UTC)temp
F
wind
direction
speed
knots
gust
knots
rain 1hr
in
rain 24hr
in
rain mn
in
humidity
%
barometer
mb
20260906082056 71 113 0.9 3.5 0.00 0.00 0.00 89 1015.1
20260906081558 71 149 0.9 3.5 0.00 0.00 0.00 89 1015.1
20260906081055 71 53 0.9 3.5 0.00 0.00 0.00 89 1015.1
20260906080555 72 138 0.9 2.6 0.00 0.00 0.00 89 1015.0
20260906080112 72 152 0.9 6.1 0.00 0.00 0.00 88 1015.1
20260906075554 72 149 2.6 6.1 0.00 0.00 0.00 88 1015.0
20260906075054 72 153 0.9 4.3 0.00 0.00 0.00 88 1015.0
20260906074606 72 135 0.9 3.5 0.00 0.00 0.00 88 1014.9
20260906074053 72 128 1.7 5.2 0.00 0.00 0.00 88 1014.9
20260906073552 72 154 0.9 6.1 0.00 0.00 0.00 87 1015.0
20260906073105 72 148 1.7 6.1 0.00 0.00 0.00 87 1015.0
20260906072551 73 143 0.9 6.1 0.00 0.00 0.00 87 1015.1
20260906072049 73 161 1.7 6.1 0.00 0.00 0.00 87 1015.1
20260906071549 73 173 1.7 6.1 0.00 0.00 0.00 87 1015.1
20260906071049 73 143 1.7 5.2 0.00 0.00 0.00 86 1015.2
20260906070549 73 153 1.7 6.1 0.00 0.00 0.00 86 1015.2
20260906070049 73 161 2.6 7.8 0.00 0.00 0.00 86 1015.1
20260906065548 73 185 3.5 7.8 0.00 0.00 0.00 86 1015.0
20260906065047 73 150 1.7 7.8 0.00 0.00 0.00 86 1014.9
20260906064547 74 181 2.6 7.8 0.00 0.00 0.00 86 1015.0
20260906064046 74 122 3.5 8.7 0.00 0.00 0.00 86 1015.1
20260906063545 74 151 3.5 8.7 0.00 0.00 0.00 85 1015.1
20260906063049 74 155 1.7 10.4 0.00 0.00 0.00 85 1015.1
20260906062545 74 154 2.6 8.7 0.00 0.00 0.00 85 1015.2
20260906062045 74 166 2.6 8.7 0.00 0.00 0.00 85 1015.1
20260906061545 74 185 2.6 7.0 0.00 0.00 0.00 86 1015.1
20260906061047 74 159 2.6 7.8 0.00 0.00 0.00 86 1015.1
20260906060544 74 127 3.5 7.8 0.00 0.00 0.00 86 1015.1
20260906060043 74 95 2.6 7.8 0.00 0.00 0.00 86 1015.0
20260906055543 74 150 1.7 7.8 0.00 0.00 0.00 86 1015.1
20260906055044 74 138 2.6 8.7 0.00 0.00 0.00 86 1015.3
20260906054544 74 94 1.7 8.7 0.00 0.00 0.00 86 1015.2
20260906054042 74 95 1.7 7.8 0.00 0.00 0.00 87 1015.1
20260906053541 73 117 3.5 7.8 0.00 0.00 0.00 87 1015.1
20260906053041 73 93 2.6 6.1 0.00 0.00 0.00 87 1015.1
20260906052541 73 82 2.6 7.0 0.00 0.00 0.00 87 1015.1
20260906052040 73 120 2.6 7.0 0.00 0.00 0.00 87 1015.2
20260906051553 74 104 1.7 5.2 0.00 0.00 0.00 87 1015.3
20260906051038 74 85 1.7 6.1 0.00 0.00 0.00 87 1015.4
20260906050537 74 60 2.6 7.0 0.00 0.00 0.00 87 1015.3
20260906050041 74 146 1.7 7.0 0.00 0.00 0.00 86 1015.4
20260906045537 74 96 1.7 6.1 0.00 0.00 0.00 86 1015.5
20260906045036 74 115 0.9 7.0 0.00 0.00 0.00 86 1015.5
20260906044544 74 116 2.6 7.0 0.00 0.00 0.00 86 1015.4
20260906044037 74 82 1.7 6.1 0.00 0.00 0.00 86 1015.4
20260906043537 74 45 1.7 7.8 0.00 0.00 0.00 86 1015.3
20260906043046 75 149 2.6 7.8 0.00 0.00 0.00 86 1015.2
20260906042535 75 102 2.6 7.8 0.00 0.00 0.00 86 1015.4
20260906042035 75 98 3.5 8.7 0.00 0.00 0.00 86 1015.5
20260906041535 75 96 4.3 8.7 0.00 0.00 0.00 85 1015.5
20260906041036 75 121 2.6 6.1 0.00 0.00 0.00 85 1015.6
20260906040534 75 94 2.6 9.6 0.00 0.00 0.00 85 1015.6
20260906040037 75 81 3.5 9.6 0.00 0.00 0.00 85 1015.4
20260906035539 75 92 2.6 7.8 0.00 0.00 0.00 84 1015.3
20260906035034 76 94 3.5 7.8 0.00 0.00 0.00 84 1015.5
20260906034538 76 90 0.9 5.2 0.00 0.00 0.00 84 1015.6
20260906034034 76 78 0.9 5.2 0.00 0.00 0.00 84 1015.7
20260906033534 76 89 1.7 7.0 0.00 0.00 0.00 84 1015.8
20260906033033 76 49 1.7 7.0 0.00 0.00 0.00 84 1015.8
20260906032534 76 91 2.6 5.2 0.00 0.00 0.00 84 1015.7
20260906032033 76 98 0.9 5.2 0.00 0.00 0.00 84 1015.7
20260906031539 76 86 1.7 5.2 0.00 0.00 0.00 84 1015.8
20260906031033 76 63 1.7 5.2 0.00 0.00 0.00 84 1015.8
20260906030535 76 93 2.6 5.2 0.00 0.00 0.00 84 1016.0
20260906030033 76 67 0.9 5.2 0.00 0.00 0.00 84 1015.9
20260906025532 76 80 1.7 5.2 0.00 0.00 0.00 84 1015.9
20260906025032 76 95 0.9 3.5 0.00 0.00 0.00 83 1016.0
20260906024531 76 78 0.9 3.5 0.00 0.00 0.00 83 1015.9
20260906024031 76 123 0.0 4.3 0.00 0.00 0.00 83 1015.8
20260906023531 76 90 0.9 4.3 0.00 0.00 0.00 83 1015.6
20260906023031 76 142 1.7 5.2 0.00 0.00 0.00 83 1015.4
20260906022532 76 125 0.9 3.5 0.00 0.00 0.00 83 1015.3
20260906022030 76 123 0.9 3.5 0.00 0.00 0.00 82 1015.3
20260906021530 76 61 0.9 4.3 0.00 0.00 0.00 82 1015.3
20260906021030 77 109 1.7 4.3 0.00 0.00 0.00 81 1015.2
20260906020530 77 125 1.7 5.2 0.00 0.00 0.00 81 1015.1
20260906020030 77 153 1.7 4.3 0.00 0.00 0.00 81 1014.9
20260906015530 77 147 1.7 6.1 0.00 0.00 0.00 80 1014.8
20260906015029 77 85 2.6 7.0 0.00 0.00 0.00 80 1014.7
20260906014530 77 118 2.6 7.0 0.00 0.00 0.00 80 1014.7
20260906014028 78 111 2.6 6.1 0.00 0.00 0.00 79 1014.8
20260906013528 78 119 1.7 6.1 0.00 0.00 0.00 78 1014.8
20260906013042 78 102 2.6 7.0 0.00 0.00 0.00 78 1014.7
20260906012529 78 138 3.5 7.0 0.00 0.00 0.00 78 1014.8
20260906012028 78 89 1.7 5.2 0.00 0.00 0.00 77 1014.7
20260906011528 79 146 1.7 5.2 0.00 0.00 0.00 76 1014.6
20260906011030 79 113 2.6 5.2 0.00 0.00 0.00 76 1014.6
20260906010528 79 115 2.6 6.1 0.00 0.00 0.00 75 1014.6
20260906010030 79 125 1.7 6.1 0.00 0.00 0.00 75 1014.7
20260906005527 80 142 0.9 5.2 0.00 0.00 0.00 74 1014.8
20260906005027 80 101 0.9 5.2 0.00 0.00 0.00 73 1014.9
20260906004527 80 62 0.9 6.1 0.00 0.00 0.00 73 1014.9
20260906004026 80 137 0.9 8.7 0.00 0.00 0.00 72 1014.9
20260906003526 81 159 3.5 8.7 0.00 0.00 0.00 71 1014.7
20260906003027 81 136 3.5 8.7 0.00 0.00 0.00 71 1014.5
20260906002526 81 164 4.3 10.4 0.00 0.00 0.00 71 1014.6
20260906002026 81 143 4.3 10.4 0.00 0.00 0.00 70 1014.6
20260906001527 82 162 3.5 10.4 0.00 0.00 0.00 70 1014.6
20260906001026 82 139 3.5 8.7 0.00 0.00 0.00 69 1014.6
20260906000526 82 167 5.2 9.6 0.00 0.00 0.00 69 1014.6
20260906000026 83 165 3.5 13.0 0.00 0.00 0.00 68 1014.4
20260905235526 83 85 4.3 13.0 0.00 0.00 0.00 68 1014.1
20260905235026 83 141 5.2 12.2 0.00 0.00 0.00 68 1013.9
20260905234524 83 103 3.5 12.2 0.00 0.00 0.00 68 1013.7
20260905234025 84 64 4.3 12.2 0.00 0.00 0.00 67 1013.5
20260905233526 84 113 5.2 12.2 0.00 0.00 0.00 67 1013.5
20260905233026 84 53 5.2 10.4 0.00 0.00 0.00 67 1013.4
20260905232524 84 101 4.3 11.3 0.00 0.00 0.00 67 1013.5
20260905232024 84 115 4.3 11.3 0.00 0.00 0.00 67 1013.4
20260905231528 84 81 5.2 10.4 0.00 0.00 0.00 66 1013.3
20260905231025 84 62 4.3 10.4 0.00 0.00 0.00 66 1013.3
20260905230525 84 50 4.3 12.2 0.00 0.00 0.00 65 1013.3
20260905230026 84 78 6.1 12.2 0.00 0.00 0.00 65 1013.3
20260905225524 84 42 3.5 10.4 0.00 0.00 0.00 64 1013.2
20260905225023 84 93 4.3 10.4 0.00 0.00 0.00 64 1013.2
20260905224523 84 32 4.3 12.2 0.00 0.00 0.00 64 1013.2
20260905224023 85 56 2.6 12.2 0.00 0.00 0.00 63 1013.2
20260905223522 85 88 3.5 12.2 0.00 0.00 0.00 63 1013.1
20260905223022 85 88 4.3 11.3 0.00 0.00 0.00 63 1013.2
20260905222525 85 107 3.5 8.7 0.00 0.00 0.00 66 1013.1
20260905222022 84 115 4.3 12.2 0.00 0.00 0.00 66 1013.1
20260905221520 84 88 4.3 12.2 0.00 0.00 0.00 66 1013.1
20260905221020 84 83 7.0 12.2 0.00 0.00 0.00 66 1013.1
20260905220519 84 76 6.1 12.2 0.00 0.00 0.00 66 1013.2
20260905220018 84 51 6.1 13.0 0.00 0.00 0.00 66 1013.2
20260905215519 84 123 7.8 13.0 0.00 0.00 0.00 66 1013.3
20260905215018 84 91 6.1 12.2 0.00 0.00 0.00 66 1013.3
20260905214517 84 57 6.1 13.9 0.00 0.00 0.00 66 1013.4
20260905214016 84 97 7.0 12.2 0.00 0.00 0.00 66 1013.5
20260905213520 84 86 7.0 12.2 0.00 0.00 0.00 66 1013.5
20260905213018 84 96 7.0 13.9 0.00 0.00 0.00 65 1013.6
20260905212515 84 101 7.8 13.9 0.00 0.00 0.00 66 1013.7
20260905212014 84 150 7.0 13.9 0.00 0.00 0.00 66 1013.7
20260905211516 84 71 7.0 11.3 0.00 0.00 0.00 67 1013.8
20260905211014 83 84 4.3 12.2 0.00 0.00 0.00 67 1013.8
20260905210514 83 82 7.8 13.0 0.00 0.00 0.00 67 1013.9
20260905210017 83 81 5.2 15.6 0.00 0.00 0.00 68 1014.1
20260905205514 83 73 7.0 15.6 0.00 0.00 0.00 67 1014.0
20260905205015 83 61 6.1 13.0 0.00 0.00 0.00 67 1014.0
20260905204512 82 88 5.2 13.9 0.00 0.00 0.00 67 1014.0
20260905204013 83 83 7.8 15.6 0.00 0.00 0.00 67 1014.2
20260905203512 83 56 8.7 15.6 0.00 0.00 0.00 66 1014.3
20260905203012 83 74 7.8 11.3 0.00 0.00 0.00 67 1014.3
20260905202511 82 63 6.1 15.6 0.00 0.00 0.00 68 1014.3
20260905202013 82 157 8.7 16.5 0.00 0.00 0.00 69 1014.4
20260905201512 82 100 9.6 16.5 0.00 0.00 0.00 69 1014.7
20260905201011 81 105 8.7 16.5 0.00 0.00 0.00 69 1014.7
20260905200511 82 77 8.7 14.8 0.00 0.00 0.00 69 1014.9
20260905200010 82 97 6.1 15.6 0.00 0.00 0.00 69 1015.0
20260905195511 81 112 9.6 15.6 0.00 0.00 0.00 70 1015.0
20260905195011 81 94 7.8 14.8 0.00 0.00 0.00 70 1014.9
20260905194510 81 85 9.6 17.4 0.00 0.00 0.00 69 1014.9
20260905194010 81 40 6.1 13.0 0.00 0.00 0.00 70 1015.2
20260905193509 81 78 7.0 16.5 0.00 0.00 0.00 70 1015.2
20260905193009 80 79 9.6 16.5 0.00 0.00 0.00 71 1015.3
20260905192509 80 91 8.7 16.5 0.00 0.00 0.00 71 1015.4
20260905192009 80 77 7.0 14.8 0.00 0.00 0.00 71 1015.5
20260905191509 80 61 7.0 13.9 0.00 0.00 0.00 71 1015.4
20260905191009 80 61 7.8 15.6 0.00 0.00 0.00 72 1015.5
20260905190508 79 69 7.8 18.2 0.00 0.00 0.00 72 1015.7
20260905190009 78 36 7.8 18.2 0.00 0.00 0.00 73 1015.8
20260905185507 79 54 7.0 15.6 0.00 0.00 0.00 73 1016.0
20260905185010 78 59 7.8 15.6 0.00 0.00 0.00 73 1016.2
20260905184510 78 15 7.0 14.8 0.00 0.00 0.00 73 1016.2
20260905184006 78 59 6.1 14.8 0.00 0.00 0.00 73 1016.3
20260905183506 78 110 7.0 14.8 0.00 0.00 0.00 73 1016.3
20260905183007 78 42 8.7 19.1 0.00 0.00 0.00 72 1016.4
20260905182506 79 13 7.8 19.1 0.00 0.00 0.00 72 1016.4
20260905182008 79 29 7.8 15.6 0.00 0.00 0.00 72 1016.4
20260905181505 80 13 9.6 15.6 0.00 0.00 0.00 72 1016.3
20260905181007 80 30 9.6 15.6 0.00 0.00 0.00 70 1016.3
20260905180506 82 344 5.2 14.8 0.00 0.00 0.00 70 1016.3
20260905180004 82 34 7.0 16.5 0.00 0.00 0.00 68 1016.4
20260905175504 83 5 7.0 16.5 0.00 0.00 0.00 67 1016.3
20260905175003 84 30 7.0 10.4 0.00 0.00 0.00 66 1016.4
20260905174508 84 327 4.3 9.6 0.00 0.00 0.00 67 1016.5
20260905174002 84 115 2.6 8.7 0.00 0.00 0.00 66 1016.6
20260905173501 84 27 2.6 8.7 0.00 0.00 0.00 66 1016.4
20260905173101 84 337 3.5 8.7 0.00 0.00 0.00 67 1016.6
20260905172559 84 17 1.7 7.8 0.00 0.00 0.00 68 1016.5
20260905172059 84 321 2.6 7.0 0.00 0.00 0.00 67 1016.4
20260905171633 84 271 2.6 5.2 0.00 0.00 0.00 67 1016.3
20260905171057 83 303 0.0 2.6 0.00 0.00 0.00 68 1016.2
20260905170555 83 303 0.9 2.6 0.00 0.00 0.00 69 1016.1
20260905165552 82 162 0.0 3.5 0.00 0.00 0.00 70 1016.2
20260905165051 82 159 0.9 4.3 0.00 0.00 0.00 69 1016.1
20260905164551 81 205 1.7 6.1 0.00 0.00 0.00 70 1016.1
20260905164047 81 180 1.7 6.1 0.00 0.00 0.00 72 1015.9
20260905163546 80 178 1.7 6.1 0.00 0.00 0.00 73 1016.0
20260905163052 80 161 1.7 6.1 0.00 0.00 0.00 73 1016.0
20260905162543 79 174 2.6 9.6 0.00 0.00 0.00 74 1015.9
20260905162042 79 187 4.3 9.6 0.00 0.00 0.00 74 1015.9
20260905161540 79 185 4.3 7.8 0.00 0.00 0.00 75 1015.9
20260905161039 78 216 3.5 10.4 0.00 0.00 0.00 77 1015.9
20260905160537 77 163 4.3 11.3 0.00 0.00 0.00 78 1016.0
20260905160036 76 201 4.3 10.4 0.00 0.00 0.00 79 1016.1
20260905155534 76 168 6.1 13.0 0.00 0.00 0.00 79 1015.9
20260905155032 75 174 6.1 13.0 0.00 0.00 0.00 80 1015.8
20260905154531 75 165 5.2 13.0 0.00 0.00 0.00 80 1015.9
20260905154030 75 138 6.1 12.2 0.00 0.00 0.00 81 1015.8
20260905153529 74 116 4.3 15.6 0.00 0.00 0.00 83 1016.0
20260905153028 72 146 7.8 15.6 0.00 0.00 0.00 84 1015.8
20260905152526 71 162 7.8 13.9 0.00 0.00 0.00 85 1015.9
20260905152024 71 153 6.1 10.4 0.00 0.00 0.00 85 1015.7
20260905151524 71 161 5.2 9.6 0.00 0.00 0.00 85 1015.8
20260905151022 70 135 3.5 11.3 0.00 0.00 0.00 86 1015.7
20260905150525 70 126 5.2 11.3 0.00 0.00 0.00 86 1015.6
20260905150033 70 162 2.6 12.2 0.00 0.00 0.00 86 1015.6
20260905145525 70 168 4.3 13.9 0.00 0.00 0.00 86 1015.7
20260905145021 70 76 5.2 13.9 0.00 0.00 0.00 86 1015.7
20260905144519 70 193 5.2 12.2 0.00 0.00 0.00 86 1015.8
20260905144020 70 163 7.0 13.9 0.00 0.00 0.00 87 1015.9
20260905143519 70 150 5.2 13.9 0.00 0.00 0.00 88 1015.9
20260905143018 69 145 3.5 10.4 0.00 0.00 0.00 88 1016.0
20260905142516 69 123 4.3 10.4 0.00 0.00 0.00 89 1015.9
20260905142020 68 154 3.5 9.6 0.00 0.00 0.00 90 1015.9
20260905141516 68 148 4.3 9.6 0.00 0.00 0.00 90 1015.8
20260905141015 68 173 2.6 9.6 0.00 0.00 0.00 91 1015.8
20260905140516 68 175 3.5 8.7 0.00 0.00 0.00 92 1015.7
20260905140015 67 136 2.6 8.7 0.00 0.00 0.00 93 1015.8
20260905135513 67 145 2.6 6.1 0.00 0.00 0.00 93 1015.8
20260905135014 66 137 2.6 6.1 0.00 0.00 0.00 94 1015.7
20260905134514 66 164 2.6 7.8 0.00 0.00 0.00 94 1015.6
20260905134010 66 140 3.5 7.8 0.00 0.00 0.00 94 1015.7
20260905133510 66 153 2.6 7.8 0.00 0.00 0.00 94 1015.7
20260905133009 66 100 3.5 7.0 0.00 0.00 0.00 94 1015.8
20260905132509 66 147 3.5 7.0 0.00 0.00 0.00 94 1015.8
20260905132007 66 137 1.7 7.0 0.00 0.00 0.00 94 1015.7
20260905131514 66 135 1.7 3.5 0.00 0.00 0.00 95 1015.7
20260905131006 66 86 0.9 7.0 0.00 0.00 0.00 95 1015.9
20260905130506 66 97 2.6 7.0 0.00 0.00 0.00 95 1015.7
20260905130004 65 78 0.9 5.2 0.00 0.00 0.00 95 1015.8
20260905125504 65 119 1.7 5.2 0.00 0.00 0.00 95 1016.1
20260905125001 65 69 0.9 5.2 0.00 0.00 0.00 95 1016.0
20260905124601 65 91 0.9 6.1 0.00 0.00 0.00 95 1015.7
20260905124059 65 154 2.6 7.0 0.00 0.00 0.00 95 1015.4
20260905124001 65 136 1.7 7.0 0.00 0.00 0.00 95 1015.4
20260905123559 65 149 1.7 7.0 0.00 0.00 0.00 95 1015.3
20260905123102 65 137 1.7 9.6 0.00 0.00 0.00 95 1015.2
20260905122559 65 122 4.3 9.6 0.00 0.00 0.00 95 1015.2
20260905122100 65 81 3.5 7.8 0.00 0.00 0.00 95 1015.2
20260905121559 65 93 2.6 7.8 0.00 0.00 0.00 95 1015.2
20260905121058 65 44 2.6 7.0 0.00 0.00 0.00 95 1015.2
20260905120557 65 117 1.7 8.7 0.00 0.00 0.00 95 1015.2
20260905120058 65 72 3.5 8.7 0.00 0.00 0.00 95 1015.2
20260905115557 65 95 3.5 7.8 0.00 0.00 0.00 95 1015.1
20260905115057 65 28 2.6 7.8 0.00 0.00 0.00 95 1015.0
20260905114607 65 115 3.5 10.4 0.00 0.00 0.00 95 1014.9
20260905114057 65 53 4.3 10.4 0.00 0.00 0.00 95 1015.0
20260905113556 65 80 4.3 8.7 0.00 0.00 0.00 95 1015.0
20260905113058 65 87 2.6 8.7 0.00 0.00 0.00 95 1015.1
20260905112556 65 104 4.3 8.7 0.00 0.00 0.00 95 1015.1
20260905112055 65 138 2.6 7.8 0.00 0.00 0.00 95 1015.1
20260905111625 65 114 2.6 8.7 0.00 0.00 0.00 95 1015.0
20260905111055 65 109 2.6 8.7 0.00 0.00 0.00 95 1014.9
20260905110554 65 153 2.6 8.7 0.00 0.00 0.00 95 1015.1
20260905110106 65 159 2.6 7.8 0.00 0.00 0.00 95 1015.0
20260905105555 65 153 2.6 7.8 0.00 0.00 0.00 95 1015.0
20260905105055 65 159 1.7 8.7 0.00 0.00 0.00 95 1015.1
20260905104615 65 128 2.6 9.6 0.00 0.00 0.00 95 1015.1
20260905104056 65 175 3.5 9.6 0.00 0.00 0.00 95 1014.9
20260905103554 64 132 1.7 7.8 0.00 0.00 0.00 95 1015.0
20260905103054 64 163 0.9 4.3 0.00 0.00 0.00 95 1015.0
20260905102553 64 140 1.7 3.5 0.00 0.00 0.00 95 1015.2
20260905102053 64 154 0.0 1.7 0.00 0.00 0.00 95 1015.2
20260905101554 64 184 0.0 0.0 0.00 0.00 0.00 95 1015.2
20260905101052 64 180 0.0 0.0 0.00 0.00 0.00 94 1015.0
20260905100553 64 180 0.0 2.6 0.00 0.00 0.00 94 1015.0
20260905100053 64 180 0.0 2.6 0.00 0.00 0.00 94 1014.8
20260905095552 64 180 0.9 2.6 0.00 0.00 0.00 94 1014.8
20260905095052 64 112 0.9 2.6 0.00 0.00 0.00 94 1014.4
20260905094704 64 164 0.0 1.7 0.00 0.00 0.00 94 1014.4
20260905094050 64 164 0.0 1.7 0.00 0.00 0.00 94 1014.5
20260905093550 64 164 0.0 2.6 0.00 0.00 0.00 94 1014.4
20260905093057 64 164 0.9 2.6 0.00 0.00 0.00 94 1014.3
20260905092551 65 107 0.0 3.5 0.00 0.00 0.00 94 1014.1
20260905092049 65 107 0.9 4.3 0.00 0.00 0.00 94 1014.0
20260905091555 65 94 1.7 7.0 0.00 0.00 0.00 94 1013.8
20260905091048 65 104 2.6 7.0 0.00 0.00 0.00 94 1013.9
20260905090548 65 102 0.9 7.0 0.00 0.00 0.00 94 1013.9
20260905090048 65 91 2.6 7.0 0.00 0.00 0.00 93 1013.8
20260905085548 65 111 1.7 7.0 0.00 0.00 0.00 93 1013.9
20260905085047 65 118 1.7 7.0 0.00 0.00 0.00 93 1013.8
20260905084558 65 80 1.7 6.1 0.00 0.00 0.00 93 1013.9
20260905084048 65 98 3.5 7.0 0.00 0.00 0.00 93 1014.1
20260905083545 65 84 2.6 7.0 0.00 0.00 0.00 93 1014.0
20260905083045 65 103 1.7 6.1 0.00 0.00 0.00 93 1014.1
20260905082545 65 107 1.7 7.0 0.00 0.00 0.00 93 1014.2